timestamp,wind_dir_avg,wind_spd_max_dir,wind_spd_avg,wind_spd_gust,battery_voltage,lat,long
2018-02-16 00:00:00+00:00,308.0,312.0,1.67,1.98,,47.59359,-54.27349
2018-02-16 00:10:00+00:00,325.0,322.0,1.3,1.63,,47.59359,-54.27349
2018-02-16 00:20:00+00:00,333.0,332.0,2.06,2.19,,47.59359,-54.27349
2018-02-16 00:30:00+00:00,315.0,316.0,2.39,2.58,,47.59359,-54.27349
2018-02-16 00:40:00+00:00,326.0,325.0,1.21,1.39,,47.59359,-54.27349
2018-02-16 00:50:00+00:00,313.0,312.0,1.49,1.61,,47.59359,-54.27349
2018-02-16 01:00:00+00:00,319.0,319.0,2.35,2.49,,47.59359,-54.27349
2018-02-16 01:10:00+00:00,344.0,346.0,1.81,1.97,,47.59359,-54.27349
2018-02-16 01:20:00+00:00,315.0,314.0,1.79,1.97,,47.59359,-54.27349
2018-02-16 01:30:00+00:00,310.0,310.0,1.91,2.01,,47.59359,-54.27349
2018-02-16 01:40:00+00:00,302.0,303.0,1.55,1.69,,47.59359,-54.27349
2018-02-16 01:50:00+00:00,294.0,308.0,0.84,1.02,,47.59359,-54.27349
2018-02-16 02:00:00+00:00,280.0,285.0,1.29,1.46,,47.59359,-54.27349
2018-02-16 02:10:00+00:00,246.0,244.0,0.88,0.99,,47.59359,-54.27349
2018-02-16 02:20:00+00:00,234.0,237.0,1.14,1.21,,47.59359,-54.27349
2018-02-16 02:30:00+00:00,267.0,278.0,1.69,1.81,,47.59359,-54.27349
2018-02-16 02:40:00+00:00,271.0,272.0,1.4,1.62,,47.59359,-54.27349
2018-02-16 02:50:00+00:00,255.0,248.0,0.68,0.88,,47.59359,-54.27349
2018-02-16 03:00:00+00:00,285.0,287.0,0.92,1.01,,47.59359,-54.27349
2018-02-16 03:10:00+00:00,305.0,306.0,0.72,0.78,,47.59359,-54.27349
2018-02-16 03:20:00+00:00,41.0,29.0,2.04,2.79,,47.59359,-54.27349
2018-02-16 03:30:00+00:00,100.0,106.0,1.99,2.41,,47.59359,-54.27349
2018-02-16 03:40:00+00:00,90.0,97.0,1.27,1.56,,47.59359,-54.27349
2018-02-16 03:50:00+00:00,61.0,59.0,1.47,1.83,,47.59359,-54.27349
2018-02-16 04:00:00+00:00,103.0,105.0,0.88,1.02,,47.59359,-54.27349
2018-02-16 04:10:00+00:00,221.0,231.0,0.73,0.88,,47.59359,-54.27349
2018-02-16 04:20:00+00:00,138.0,137.0,1.27,1.44,,47.59359,-54.27349
2018-02-16 04:30:00+00:00,181.0,182.0,1.79,1.91,,47.59359,-54.27349
2018-02-16 04:40:00+00:00,211.0,209.0,1.43,1.48,,47.59359,-54.27349
2018-02-16 04:50:00+00:00,229.0,228.0,2.62,2.93,,47.59359,-54.27349
2018-02-16 05:00:00+00:00,201.0,204.0,2.91,3.27,,47.59359,-54.27349
2018-02-16 05:10:00+00:00,200.0,198.0,3.27,3.56,,47.59359,-54.27349
2018-02-16 05:20:00+00:00,197.0,198.0,2.75,3.15,,47.59359,-54.27349
2018-02-16 05:30:00+00:00,229.0,231.0,5.38,6.81,,47.59359,-54.27349
2018-02-16 05:40:00+00:00,233.0,241.0,4.16,5.12,,47.59359,-54.27349
2018-02-16 05:50:00+00:00,229.0,228.0,3.86,4.3,,47.59359,-54.27349
2018-02-16 06:00:00+00:00,219.0,229.0,4.59,5.63,,47.59359,-54.27349
2018-02-16 06:10:00+00:00,232.0,242.0,4.94,6.08,,47.59359,-54.27349
2018-02-16 06:20:00+00:00,230.0,233.0,3.78,4.31,,47.59359,-54.27349
2018-02-16 06:30:00+00:00,225.0,231.0,3.38,4.46,,47.59359,-54.27349
2018-02-16 06:40:00+00:00,236.0,243.0,5.41,6.16,,47.59359,-54.27349
2018-02-16 06:50:00+00:00,181.0,180.0,5.17,5.57,,47.59359,-54.27349
2018-02-16 07:00:00+00:00,186.0,187.0,4.17,4.66,,47.59359,-54.27349
2018-02-16 07:10:00+00:00,197.0,199.0,3.59,4.04,,47.59359,-54.27349
2018-02-16 07:20:00+00:00,188.0,189.0,3.12,3.39,,47.59359,-54.27349
2018-02-16 07:30:00+00:00,193.0,190.0,2.94,3.29,,47.59359,-54.27349
2018-02-16 07:40:00+00:00,184.0,187.0,2.56,2.85,,47.59359,-54.27349
2018-02-16 07:50:00+00:00,178.0,185.0,2.44,2.79,,47.59359,-54.27349
2018-02-16 08:00:00+00:00,158.0,168.0,3.93,4.46,,47.59359,-54.27349
2018-02-16 08:10:00+00:00,154.0,156.0,4.58,5.39,,47.59359,-54.27349
2018-02-16 08:20:00+00:00,181.0,183.0,4.56,5.32,,47.59359,-54.27349
2018-02-16 08:30:00+00:00,195.0,197.0,3.67,3.95,,47.59359,-54.27349
2018-02-16 08:40:00+00:00,195.0,202.0,3.81,4.53,,47.59359,-54.27349
2018-02-16 08:50:00+00:00,189.0,186.0,4.4,5.08,,47.59359,-54.27349
2018-02-16 09:00:00+00:00,141.0,146.0,4.2,5.04,,47.59359,-54.27349
2018-02-16 09:10:00+00:00,145.0,148.0,3.46,3.83,,47.59359,-54.27349
2018-02-16 09:20:00+00:00,179.0,180.0,3.32,4.04,,47.59359,-54.27349
2018-02-16 09:30:00+00:00,156.0,159.0,4.09,4.95,,47.59359,-54.27349
2018-02-16 09:40:00+00:00,172.0,170.0,4.0,4.45,,47.59359,-54.27349
2018-02-16 09:50:00+00:00,164.0,154.0,3.57,4.1,,47.59359,-54.27349
2018-02-16 10:00:00+00:00,214.0,213.0,2.6,2.89,,47.59359,-54.27349
2018-02-16 10:10:00+00:00,202.0,201.0,2.98,3.8,,47.59359,-54.27349
2018-02-16 10:20:00+00:00,190.0,195.0,3.79,4.38,,47.59359,-54.27349
2018-02-16 10:30:00+00:00,190.0,190.0,2.72,3.03,,47.59359,-54.27349
2018-02-16 10:40:00+00:00,157.0,168.0,2.05,2.52,,47.59359,-54.27349
2018-02-16 10:50:00+00:00,164.0,159.0,2.76,3.03,,47.59359,-54.27349
2018-02-16 11:00:00+00:00,165.0,165.0,2.35,2.87,,47.59359,-54.27349
2018-02-16 11:10:00+00:00,185.0,191.0,2.48,2.75,,47.59359,-54.27349
2018-02-16 11:20:00+00:00,193.0,194.0,2.43,2.73,,47.59359,-54.27349
2018-02-16 11:30:00+00:00,185.0,188.0,3.63,3.98,,47.59359,-54.27349
2018-02-16 11:40:00+00:00,188.0,187.0,3.32,3.77,,47.59359,-54.27349
2018-02-16 11:50:00+00:00,179.0,179.0,3.14,3.58,,47.59359,-54.27349
2018-02-16 12:00:00+00:00,170.0,167.0,3.15,3.6,,47.59359,-54.27349
2018-02-16 12:10:00+00:00,158.0,161.0,3.56,4.28,,47.59359,-54.27349
2018-02-16 12:20:00+00:00,156.0,153.0,2.75,3.17,,47.59359,-54.27349
2018-02-16 12:30:00+00:00,146.0,143.0,3.1,3.48,,47.59359,-54.27349
2018-02-16 12:40:00+00:00,158.0,154.0,2.53,2.85,,47.59359,-54.27349
2018-02-16 12:50:00+00:00,156.0,150.0,2.55,3.01,,47.59359,-54.27349
2018-02-16 13:00:00+00:00,172.0,179.0,2.52,2.83,,47.59359,-54.27349
2018-02-16 13:10:00+00:00,138.0,146.0,1.67,2.02,,47.59359,-54.27349
2018-02-16 13:20:00+00:00,167.0,166.0,3.0,3.41,,47.59359,-54.27349
2018-02-16 13:30:00+00:00,188.0,189.0,3.88,4.43,,47.59359,-54.27349
2018-02-16 13:40:00+00:00,182.0,177.0,3.17,4.0,,47.59359,-54.27349
2018-02-16 13:50:00+00:00,184.0,183.0,3.49,4.11,,47.59359,-54.27349
2018-02-16 14:00:00+00:00,183.0,185.0,3.34,3.69,,47.59359,-54.27349
2018-02-16 14:10:00+00:00,185.0,181.0,3.34,4.22,,47.59359,-54.27349
2018-02-16 14:20:00+00:00,188.0,185.0,3.07,3.6,,47.59359,-54.27349
2018-02-16 14:30:00+00:00,189.0,193.0,4.05,4.66,,47.59359,-54.27349
2018-02-16 14:40:00+00:00,193.0,195.0,2.92,3.39,,47.59359,-54.27349
2018-02-16 14:50:00+00:00,193.0,200.0,2.3,2.53,,47.59359,-54.27349
2018-02-16 15:00:00+00:00,170.0,169.0,1.22,1.47,,47.59359,-54.27349
2018-02-16 15:10:00+00:00,116.0,100.0,0.62,0.92,,47.59359,-54.27349
2018-02-16 15:20:00+00:00,159.0,156.0,1.59,2.16,,47.59359,-54.27349
2018-02-16 15:30:00+00:00,182.0,186.0,1.54,1.83,,47.59359,-54.27349
2018-02-16 15:40:00+00:00,155.0,166.0,1.01,1.35,,47.59359,-54.27349
2018-02-16 15:50:00+00:00,132.0,134.0,1.41,1.6,,47.59359,-54.27349
2018-02-16 16:00:00+00:00,124.0,114.0,0.66,1.19,,47.59359,-54.27349
2018-02-16 16:10:00+00:00,79.0,59.0,1.0,1.25,,47.59359,-54.27349
2018-02-16 16:20:00+00:00,71.0,55.0,1.31,1.51,,47.59359,-54.27349
2018-02-16 16:30:00+00:00,79.0,78.0,1.53,1.91,,47.59359,-54.27349
2018-02-16 16:40:00+00:00,85.0,86.0,0.99,1.43,,47.59359,-54.27349
2018-02-16 16:50:00+00:00,132.0,135.0,2.27,2.49,,47.59359,-54.27349
2018-02-16 17:00:00+00:00,142.0,138.0,1.66,1.97,,47.59359,-54.27349
2018-02-16 17:10:00+00:00,174.0,168.0,2.07,2.34,,47.59359,-54.27349
2018-02-16 17:20:00+00:00,213.0,210.0,3.43,3.87,,47.59359,-54.27349
2018-02-16 17:30:00+00:00,218.0,219.0,4.07,4.33,,47.59359,-54.27349
2018-02-16 17:40:00+00:00,236.0,236.0,4.77,5.47,,47.59359,-54.27349
2018-02-16 17:50:00+00:00,235.0,237.0,4.32,4.99,,47.59359,-54.27349
2018-02-16 18:20:00+00:00,225.0,240.0,6.99,8.97,,47.59359,-54.27349
2018-02-16 18:30:00+00:00,220.0,223.0,7.07,7.92,,47.59359,-54.27349
2018-02-16 18:40:00+00:00,224.0,231.0,8.08,9.24,,47.59359,-54.27349
2018-02-16 18:50:00+00:00,234.0,236.0,8.32,9.43,,47.59359,-54.27349
2018-02-16 19:00:00+00:00,236.0,238.0,7.36,8.59,,47.59359,-54.27349
2018-02-16 19:10:00+00:00,232.0,239.0,7.83,9.1,,47.59359,-54.27349
2018-02-16 19:20:00+00:00,229.0,230.0,7.97,8.98,,47.59359,-54.27349
2018-02-16 19:30:00+00:00,232.0,232.0,6.77,7.57,,47.59359,-54.27349
2018-02-16 19:40:00+00:00,231.0,231.0,5.94,6.87,,47.59359,-54.27349
2018-02-16 19:50:00+00:00,230.0,231.0,5.14,5.78,,47.59359,-54.27349
2018-02-16 20:00:00+00:00,229.0,234.0,5.34,6.12,,47.59359,-54.27349
2018-02-16 20:10:00+00:00,228.0,230.0,6.82,8.09,,47.59359,-54.27349
2018-02-16 20:20:00+00:00,234.0,230.0,7.14,8.44,,47.59359,-54.27349
2018-02-16 20:30:00+00:00,229.0,232.0,8.72,9.74,,47.59359,-54.27349
2018-02-16 20:40:00+00:00,233.0,238.0,7.31,8.31,,47.59359,-54.27349
2018-02-16 20:50:00+00:00,251.0,254.0,7.53,8.28,,47.59359,-54.27349
2018-02-16 21:00:00+00:00,271.0,272.0,8.2,9.6,,47.59359,-54.27349
2018-02-16 21:10:00+00:00,269.0,266.0,8.49,10.17,,47.59359,-54.27349
2018-02-16 21:20:00+00:00,262.0,262.0,8.13,9.03,,47.59359,-54.27349
2018-02-16 21:30:00+00:00,252.0,259.0,7.1,8.14,,47.59359,-54.27349
2018-02-16 21:40:00+00:00,245.0,245.0,10.03,11.36,,47.59359,-54.27349
2018-02-16 21:50:00+00:00,255.0,254.0,8.58,9.8,,47.59359,-54.27349
2018-02-16 22:00:00+00:00,262.0,265.0,9.31,10.37,,47.59359,-54.27349
2018-02-16 22:10:00+00:00,262.0,263.0,7.89,8.7,,47.59359,-54.27349
2018-02-16 22:20:00+00:00,265.0,266.0,8.75,10.15,,47.59359,-54.27349
2018-02-16 22:30:00+00:00,275.0,274.0,9.76,10.72,,47.59359,-54.27349
2018-02-16 22:40:00+00:00,273.0,273.0,8.09,8.85,,47.59359,-54.27349
2018-02-16 22:50:00+00:00,269.0,274.0,8.5,9.55,,47.59359,-54.27349
2018-02-16 23:00:00+00:00,262.0,264.0,8.21,9.71,,47.59359,-54.27349
2018-02-16 23:10:00+00:00,262.0,263.0,8.51,9.04,,47.59359,-54.27349
2018-02-16 23:20:00+00:00,254.0,258.0,6.77,7.84,,47.59359,-54.27349
2018-02-16 23:30:00+00:00,242.0,248.0,6.01,7.17,,47.59359,-54.27349
2018-02-16 23:40:00+00:00,246.0,248.0,6.16,7.07,,47.59359,-54.27349
2018-02-16 23:50:00+00:00,245.0,250.0,4.88,5.77,,47.59359,-54.27349
